SCP
0 0 0 0 0 0 0 0 0 0 0 0 0 0 0 0 0 0 0 0 -0 -0 0 0 -0 -0 -0 -0 -0 -0 -0 -0 -0 -0 -0 -0 -0 -0 -0 -0 -0 -0 -0 -0 -0 -0 -0 -0 0
0 0 0 0 0 0 0 0 0 0 0 0 0 0 0 0 0 0 0 0 -0 -0 0 0 -0 -0 -0 -0 -0 -0 -0 -0 -0 0 0 -0 -0 -0 -0 -0 -0 -0 -0 -0 -0 -0 -0 -0 0
0 0 0 0 0 0 0 0 0 0 0 0 0 0 0 0 0 0 0 -0 -0 0 0 0 -0 -0 -0 -0 -0 -0 -0 -0 -0 0 0 0 0 -0 -0 -0 -0 -0 -0 -0 -0 -0 -0 -0 -0
0 0 0 0 0 0 0 0 0 0 0 0 0 0 0 0 0 0 0 -0 -0 0 0 0 -0 -0 -0 -0 -0 -0 -0 -0 -0 0 0 0 0 0 -0 -0 -0 0 0 -0 0 0 0 0 0
0 0 0 0 0 0 0 0 0 0 0 0 0 0 0 0 0 0 0 0 -0 0 0 0 0 -0 -0 -0 -0 -0 -0 -0 -0 -0 0 0 0 0 0 -0 0 0 0 0 0 0 0 0 0
0 0 0 0 0 0 0 0 -0 -0 0 0 0 0 0 0 0 0 0 0 0 0 0 0 0 0 -0 -0 -0 -0 -0 -0 -0 0 -0 0 0 0 0 0 0 0 0 0 0 0 0 0 0
0 0 0 0 0 0 0 0 -0 0 0 0 0 0 0 0 0 0 0 0 0 0 0 0 0 0 0 0 0 0 0 0 0 0 0 0 0 0 0 0 0 0 0 0 0 0 -0 -0 -0
0 0 0 0 0 0 0 0 0 0 0 0 0 -0 0 0 0 0 0 0 0 0 0 0 0 0 0 0 0 0 0 0 0 0 0 0 0 0 0 0 0 0 0 -0 -0 -0 -0 -0 -0
0 0 0 0 0 0 0 0 0 0 0 0 0 0 0 0 0 0 0 0 0 0 0 0 0 0 0 0 0 0 0 0 0 0 0 0 0 0 0 0 0 0 0 -0 -0 -0 -0 -0 -0
0 0 0 0 0 0 0 0 0 0 0 0 0 0 0 0 0 0 0 0 0 0 0 0 0 0 0 0 0 0 0 0 0 0 0 0 0 0 0 0 -0 0 -0 -0 -0 -0 -0 -0 -0
0 0 0 0 0 0 0 0 0 0 0 0 0 0 0 0 0 0 0 0 0 0 0 0 0 0 0 0 0 0 0 0 0 0 0 0 0 0 0 0 0 0 -0 0 -0 -0 -0 -0 -0
0 0 0 0 0 0 0 0 0 0 0 0 0 0 0 0 0 0 0 0 0 0 0 0 0 0 0 0 0 0 0 0 0 0 0 0 0 0 0 0 0 0 0 0 0 0 0 0 0
0 0 0 0 0 0 0 0 0 0 0 0 0 0 0 0 0 0 0 0 -0 0 0 0 0 0 0 0 0 0 0 0 0 0 0 0 0 0 0 0 0 0 0 0 0 0 0 0 0
0 0 0 0 0 0 0 0 0 0 0 0 0 0 0 0 0 0 0 0 0 0 0 0 0 0 0 0 0 0 0 0 0 0 0 0 0 0 0 0 0 0 0 0 0 0 0 0 0
0 0 0 0 0 0 0 0 0 0 0 0 0 0 0 0 0 0 0 0 0 0 0 0 0 0 0 0 0 0 0 0 0 0 0 0 0 0 0 0 0 0 0 0 0 0 0 0 0
0 0 0 0 0 0 0 0 0 0 0 0 0 0 0 0 0 0 0 0 0 0 0 0 0 0 0 0 0 0 0 0 0 0 0 0 0 0 0 0 0 0 0 0 0 0 0 0 0
0 0 0 0 0 0 0 0 0 0 0 0 0 0 0 0 0 0 0 0 0 0 0 0 0 0 0 0 0 0 0 0 0 0 0 0 0 0 0 0 0 0 0 0 0 0 0 0 0
0 0 0 0 0 0 0 0 0 0 0 0 0 0 0 0 0 0 0 0 0 0 0 0 0 0 0 0 0 0 0 0 0 0 0 0 0 0 0 0 0 0 0 0 0 0 0 0 0
0 0 0 0 0 0 0 0 0 0 0 0 0 0 0 0 0 0 0 0 0 0 0 0 0 0 0 0 0 0 0 0 0 0 0 0 0 0 0 0 0 0 0 0 0 0 0 0 0
0 0 0 0 0 0 0 0 0 0 0 0 0 0 0 0 0 0 0 0 0 0 0 0 0 0 0 0 0 0 0 0 0 0 0 0 0 0 0 0 0 0 0 0 0 0 0 0 0
0 0 0 0 0 0 0 0 0 0 0 0 0 0 0 0 0 0 0 0 0 0 0 0 0 0 0 0 0 0 0 0 0 0 0 0 0 0 0 0 0 0 0 0 0 0 0 0 0
0 0 0 0 0 0 0 -0 0 0 0 0 0 0 0 0 0 0 0 0 0 0 0 0 0 0 0 0 0 0 0 0 0 0 0 0 0 0 0 0 0 0 0 0 0 0 0 0 0
0 0 0 0 0 0 0 0 -0 0 0 0 0 0 0 0 0 0 0 0 0 0 0 0 0 0 0 0 0 0 0 0 0 0 0 0 0 0 0 0 0 0 0 0 0 0 0 0 0
0 0 0 0 0 0 0 0 -0 0 0 0 0 0 0 0 0 0 0 0 0 0 0 0 0 0 0 0 0 0 0 0 0 0 0 0 0 0 0 0 0 0 0 0 0 0 0 0 0
0 0 0 0 0 0 0 0 0 0 0 0 0 0 0 0 0 0 0 0 0 0 0 0 0 0 0 0 0 0 0 0 0 0 0 0 0 0 0 0 0 0 0 0 0 0 0 0 0
0 0 0 0 0 0 0 0 0 0 0 0 0 0 0 0 0 0 0 0 0 0 0 0 0 0 0 0 0 0 0 0 0 0 0 0 0 0 0 0 0 0 0 0 0 0 0 0 0
0 0 0 0 0 0 0 0 0 0 0 0 0 0 0 0 0 0 0 0 0 0 0 0 0 0 0 0 0 0 0 0 0 0 0 0 0 0 0 0 0 0 0 0 0 0 0 0 0
0 0 0 0 0 0 0 0 0 0 0 0 0 0 0 0 0 0 0 0 0 0 0 0 0 0 0 0 0 0 0 0 0 0 0 0 0 0 0 0 0 0 0 0 0 0 0 0 0
0 0 0 0 0 0 0 0 0 0 0 0 0 0 0 0 0 0 0 0 0 0 0 0 0 0 0 0 0 0 0 0 0 0 0 0 0 0 0 0 0 0 0 0 0 0 0 0 0
0 0 0 0 0 0 0 0 0 0 0 0 0 0 0 0 0 0 0 0 0 0 0 0 0 0 0 0 0 0 0 0 0 0 0 0 0 0 0 0 0 0 0 0 0 0 0 0 0
Wind_Speed_500mb
2 2 2 5 7 9 5 9 6 8 7 4 15 11 13 11 7 7 16 28 44 44 44 46 43 38 32 36 37 33 36 36 34 33 31 28 23 19 15 12 10 10 22 26 24 23 24 23 22
4 2 1 4 8 3 7 8 3 11 9 26 27 18 8 4 5 12 38 29 42 43 45 49 44 40 33 38 35 29 29 28 29 31 31 29 25 19 17 15 18 19 24 22 23 22 21 19 20
5 3 2 7 6 7 6 7 13 5 37 3 9 15 5 8 7 27 24 39 44 42 46 48 45 42 37 38 34 26 22 18 18 21 26 26 25 20 14 19 26 30 22 18 22 21 18 16 15
2 1 7 6 9 10 7 7 2 10 8 11 25 12 6 1 13 22 35 42 42 45 47 47 43 42 41 38 31 24 19 12 12 19 23 23 27 28 18 21 24 24 20 21 22 20 17 14 12
2 4 6 3 9 9 7 14 4 6 5 15 14 9 8 20 9 21 36 39 45 46 48 45 42 42 41 39 31 23 16 9 8 12 18 27 25 24 21 16 17 18 15 17 18 17 15 12 10
1 4 5 6 11 10 13 18 20 14 9 17 14 16 12 18 10 27 34 38 45 44 49 46 44 41 40 38 31 24 15 10 2 7 14 19 18 23 22 18 14 14 14 13 13 12 11 9 6
9 7 8 7 8 11 7 22 7 22 10 6 27 10 10 23 22 29 34 37 45 44 47 48 46 42 38 37 33 25 16 10 8 7 12 15 16 14 16 14 13 13 12 10 9 8 7 5 4
7 9 6 8 6 9 9 20 8 11 10 18 18 14 13 38 37 37 36 37 46 46 47 49 47 45 41 38 34 27 21 15 13 12 13 15 14 13 11 10 8 7 8 6 6 7 6 6 6
11 6 7 9 11 8 9 10 9 1 22 15 21 10 11 44 46 48 45 45 52 49 48 48 47 46 42 40 37 31 25 19 14 14 15 15 15 14 14 10 10 8 8 7 7 8 9 10 10
12 9 17 9 11 7 6 9 19 5 9 5 16 18 20 50 55 57 59 60 61 58 55 50 47 44 43 41 39 34 29 22 16 16 13 12 15 15 15 14 11 9 8 9 9 10 11 11 12
10 12 10 10 11 4 2 7 14 3 4 6 16 33 42 56 60 60 60 58 63 59 56 54 48 44 42 40 37 35 30 24 19 18 16 14 14 18 18 16 14 12 10 9 11 11 12 15 15
6 17 14 16 14 8 4 9 15 8 4 17 15 35 49 60 62 64 62 60 60 57 52 51 50 46 42 38 36 33 30 26 25 21 20 21 20 20 19 17 16 15 14 15 17 16 18 18 19
8 8 21 19 16 9 7 7 6 21 11 9 16 43 52 59 61 61 58 54 53 55 50 46 50 48 43 41 37 35 32 29 23 23 23 25 26 24 24 22 20 18 19 17 18 19 20 23 24
9 27 12 22 19 9 8 10 5 5 6 5 23 44 56 61 60 60 62 58 56 52 48 44 50 48 44 42 40 37 34 31 29 27 24 25 25 24 24 21 21 20 20 19 20 21 23 24 26
7 8 9 21 18 8 7 12 14 34 17 7 22 43 57 61 60 58 55 61 58 54 49 47 47 47 46 41 39 38 33 32 32 30 27 27 26 25 24 24 23 19 20 22 24 23 26 27 28
9 2 10 13 28 18 17 31 18 32 20 15 20 31 53 59 61 58 57 61 59 56 54 48 48 49 47 42 39 39 35 32 30 29 29 28 27 27 26 26 25 22 24 26 29 29 31 32 34
12 14 23 5 31 12 28 11 34 29 25 24 16 28 40 56 61 58 61 63 64 61 56 54 51 51 48 44 39 40 36 37 34 33 32 30 29 29 30 29 26 28 31 32 32 33 36 37 40
10 17 9 29 12 13 19 22 10 42 51 41 28 15 31 46 60 57 57 67 69 68 61 56 53 50 47 44 41 39 38 40 41 40 39 34 32 32 33 34 32 32 38 40 39 40 40 44 46
5 9 25 6 13 13 31 21 34 28 43 48 49 34 25 41 52 53 51 55 76 72 70 67 62 57 53 51 50 48 52 49 48 47 44 42 40 38 39 39 38 38 42 44 44 47 49 49 49
26 11 12 12 8 10 7 28 28 31 35 53 56 45 30 33 37 38 51 56 63 78 75 68 70 66 60 57 52 53 52 52 49 47 47 46 45 42 45 45 43 40 42 44 47 50 56 58 54
29 35 8 6 9 6 4 13 18 20 41 44 58 53 42 33 24 22 28 58 60 65 77 77 69 64 64 62 57 58 59 60 57 54 54 51 48 45 45 47 49 46 46 48 47 51 55 61 65
26 17 19 20 5 7 9 19 22 31 26 37 57 60 58 46 36 25 19 40 64 61 60 69 74 67 63 65 65 63 60 63 65 60 56 53 46 47 44 47 51 55 52 58 56 55 56 61 68
13 12 27 21 7 7 9 5 11 22 40 44 37 52 74 73 66 45 27 27 57 67 63 57 62 64 61 60 57 58 58 54 54 59 63 60 54 52 49 50 51 52 55 57 62 64 65 69 73
10 16 5 11 15 13 29 17 9 13 19 25 26 51 68 56 48 42 33 29 45 58 59 59 59 58 54 55 46 47 49 52 53 49 47 50 53 54 49 45 48 52 54 57 58 62 68 72 78
21 11 11 16 15 29 27 13 29 4 6 10 28 48 58 60 56 51 44 34 37 48 52 50 47 43 45 44 37 42 47 50 51 53 54 56 60 62 59 58 58 53 52 54 58 62 66 67 71
22 16 4 11 20 38 12 23 22 14 13 6 17 36 44 59 62 56 50 45 36 32 31 32 27 24 27 30 33 37 40 44 48 51 53 52 50 52 53 55 51 52 58 61 67 64 61 61 64
11 22 30 7 4 9 11 29 12 5 7 10 8 27 47 61 60 60 54 50 52 44 35 27 22 22 24 24 27 30 33 40 46 49 53 56 57 58 61 63 63 67 60 61 63 69 68 65 65
14 13 11 13 6 9 9 17 24 13 12 8 12 25 39 63 66 59 56 55 51 45 42 36 31 20 15 15 16 17 19 24 26 29 35 41 45 47 49 52 56 61 62 66 71 69 63 63 59
10 25 12 8 8 8 6 10 5 13 12 21 18 36 46 52 55 52 46 38 33 29 27 24 22 24 21 16 13 13 12 13 18 20 21 21 22 25 26 27 29 36 46 54 61 66 71 75 73
12 28 29 9 9 6 3 8 8 14 12 23 32 42 49 58 59 55 50 46 41 36 33 30 26 19 18 14 11 13 14 12 10 10 11 13 17 22 24 25 25 28 31 35 39 43 45 47 49
Wind_Direction_500mb
340 198 183 154 66 68 255 267 300 294 2 349 140 145 153 99 155 203 149 156 166 164 164 162 161 164 164 156 156 156 159 162 161 162 166 166 170 172 174 173 180 150 110 103 104 104 104 97 84
2 271 243 118 94 113 267 257 300 250 136 112 87 95 55 87 105 142 146 145 166 164 163 159 162 163 167 160 162 160 164 172 178 181 183 185 186 187 193 178 142 114 103 110 108 109 106 100 82
360 265 330 93 117 187 217 246 278 246 162 133 105 77 64 131 141 153 156 152 168 167 162 164 163 166 163 159 165 166 167 180 187 188 186 183 180 168 177 154 126 122 124 127 120 114 115 111 91
302 93 56 91 198 249 209 252 257 110 180 197 130 70 87 235 143 157 156 156 169 166 163 165 165 165 163 162 165 165 162 153 184 180 168 158 154 153 155 140 143 144 144 119 124 121 120 117 103
289 90 56 343 270 260 285 313 135 313 237 146 154 152 92 134 128 164 160 160 170 165 164 164 165 165 167 167 166 171 168 150 156 187 171 155 154 150 146 147 154 163 140 130 126 127 124 123 118
126 88 78 237 261 301 309 317 280 196 238 150 112 113 143 166 162 163 164 164 170 168 166 165 167 169 172 173 174 181 182 177 201 204 180 178 167 162 159 158 152 148 143 138 135 132 130 132 128
129 95 203 206 266 320 272 326 222 177 190 208 152 104 163 183 174 168 167 168 173 173 170 171 171 174 177 180 182 191 199 215 257 252 209 183 179 182 177 171 148 148 157 159 153 152 154 163 172
173 115 194 231 215 264 296 339 350 179 184 171 175 169 189 182 174 171 170 172 179 179 176 177 178 181 184 186 192 198 207 225 260 253 223 193 190 196 196 176 174 175 181 183 184 189 198 213 227
170 95 210 223 159 242 327 335 21 167 154 178 197 192 209 174 172 174 174 175 183 188 186 183 185 187 190 191 194 203 215 229 241 231 205 199 205 201 202 205 193 202 207 215 223 227 235 242 249
175 166 206 216 180 203 302 342 329 68 149 163 169 186 180 175 177 182 184 182 186 189 190 191 192 191 193 198 202 209 219 222 228 222 199 194 212 213 210 209 212 211 214 230 244 249 257 265 270
192 196 200 194 190 210 265 314 335 229 192 229 192 172 176 181 184 190 193 194 189 191 193 193 197 199 202 203 208 215 221 221 225 222 218 212 217 224 231 231 233 236 243 255 262 271 276 280 277
225 229 204 187 199 189 273 317 319 276 176 295 243 195 184 188 191 196 200 199 195 193 195 197 199 205 208 210 215 220 223 223 224 229 231 230 231 239 240 245 250 252 263 270 273 277 277 281 283
233 232 212 208 204 215 209 237 263 278 296 289 232 192 195 198 199 203 208 207 202 201 203 207 205 206 210 212 215 220 223 227 228 232 237 238 240 243 243 247 251 255 262 275 277 276 281 279 283
295 225 181 185 196 210 201 224 216 280 260 306 198 195 199 203 202 206 211 212 207 207 207 210 209 211 214 216 218 221 225 227 231 233 236 241 247 249 248 247 251 258 264 268 276 281 282 286 287
254 298 256 211 199 220 155 253 214 233 269 221 205 203 200 208 208 215 219 216 214 211 211 211 212 212 215 219 220 222 222 225 232 238 239 242 245 248 250 254 257 260 263 266 270 276 281 286 289
186 186 234 183 171 216 162 242 215 216 211 211 211 213 211 213 217 218 222 224 221 218 215 216 216 219 218 218 219 221 225 229 236 238 239 240 239 242 246 251 257 262 263 266 269 275 279 284 287
216 215 224 299 200 165 193 229 221 202 194 174 177 215 219 222 224 224 226 227 227 225 222 220 221 223 222 223 224 229 231 237 237 238 238 241 247 248 254 259 265 267 269 271 274 277 283 289 291
205 224 239 219 208 218 206 231 263 216 214 221 205 201 220 222 224 226 228 229 229 228 228 227 227 228 227 230 232 238 241 244 245 242 243 245 246 251 257 261 263 267 270 272 276 282 285 289 293
342 313 238 206 222 181 222 217 232 233 215 215 214 203 211 221 224 229 235 235 228 228 228 230 228 231 228 225 228 230 237 239 245 247 248 246 248 254 258 261 264 267 271 277 278 280 281 284 291
265 266 289 255 241 213 228 233 239 213 219 210 211 206 190 193 216 229 240 235 230 225 228 229 231 232 232 232 238 240 242 244 247 250 252 254 253 253 260 262 263 263 268 275 278 279 282 284 282
233 237 245 303 321 247 350 246 223 241 236 229 232 223 209 200 197 222 250 221 224 224 225 229 229 232 233 237 242 244 245 250 251 251 256 255 262 262 260 265 268 269 269 271 274 278 279 282 285
237 204 215 261 324 237 170 261 209 210 228 226 228 235 232 212 221 240 268 227 218 221 224 227 231 236 237 241 246 249 251 253 258 263 265 269 270 271 275 277 273 273 273 275 277 279 280 281 280
239 202 202 228 211 333 234 255 239 184 224 222 217 221 233 238 235 231 243 230 215 217 218 218 220 228 229 233 243 246 250 256 264 268 268 269 274 276 274 274 275 277 280 281 281 283 283 281 280
291 260 232 197 217 244 221 211 208 200 207 220 212 216 224 224 216 208 215 214 213 218 220 220 220 224 229 234 229 241 248 255 262 272 272 271 276 279 282 282 283 284 285 285 288 288 287 287 283
205 224 170 190 191 231 190 193 237 245 202 206 208 208 214 215 203 196 186 193 198 209 211 216 223 225 231 238 234 247 252 257 262 268 271 269 271 275 275 276 276 280 281 282 285 286 288 288 288
207 233 216 183 195 229 110 221 217 224 155 195 248 228 210 194 188 183 169 167 169 174 195 208 207 211 222 224 238 246 252 263 267 271 270 273 273 274 279 284 280 279 278 282 285 286 289 290 290
193 209 237 308 326 175 181 239 311 145 96 103 85 181 183 182 175 170 164 162 164 165 167 175 187 194 216 225 241 251 258 260 264 266 268 271 272 273 272 273 276 279 276 278 279 281 284 288 286
223 141 177 221 179 222 216 222 218 177 169 136 130 124 148 168 169 162 159 155 151 154 159 156 159 172 196 212 235 243 253 265 267 267 272 278 280 279 278 277 275 272 274 276 277 277 280 282 279
188 240 260 216 200 185 158 239 195 199 201 172 140 137 146 150 152 156 159 159 165 169 173 179 181 194 205 203 226 250 267 277 293 289 291 295 292 288 289 291 291 289 282 280 280 279 278 278 279
248 234 210 258 178 219 231 273 349 249 181 136 121 125 132 141 140 140 141 141 142 144 146 149 149 155 174 178 188 207 213 214 232 263 274 284 297 304 307 307 304 299 296 295 295 295 294 292 290
Wind_Speed_850mb
2 2 2 5 7 9 5 9 6 8 7 4 15 11 13 11 7 7 16 28 44 44 44 46 43 38 32 36 37 33 36 36 34 33 31 28 23 19 15 12 10 10 22 26 24 23 24 23 22
4 2 1 4 8 3 7 8 3 11 9 26 27 18 8 4 5 12 38 29 42 43 45 49 44 40 33 38 35 29 29 28 29 31 31 29 25 19 17 15 18 19 24 22 23 22 21 19 20
5 3 2 7 6 7 6 7 13 5 37 3 9 15 5 8 7 27 24 39 44 42 46 48 45 42 37 38 34 26 22 18 18 21 26 26 25 20 14 19 26 30 22 18 22 21 18 16 15
2 1 7 6 9 10 7 7 2 10 8 11 25 12 6 1 13 22 35 42 42 45 47 47 43 42 41 38 31 24 19 12 12 19 23 23 27 28 18 21 24 24 20 21 22 20 17 14 12
2 4 6 3 9 9 7 14 4 6 5 15 14 9 8 20 9 21 36 39 45 46 48 45 42 42 41 39 31 23 16 9 8 12 18 27 25 24 21 16 17 18 15 17 18 17 15 12 10
1 4 5 6 11 10 13 18 20 14 9 17 14 16 12 18 10 27 34 38 45 44 49 46 44 41 40 38 31 24 15 10 2 7 14 19 18 23 22 18 14 14 14 13 13 12 11 9 6
9 7 8 7 8 11 7 22 7 22 10 6 27 10 10 23 22 29 34 37 45 44 47 48 46 42 38 37 33 25 16 10 8 7 12 15 16 14 16 14 13 13 12 10 9 8 7 5 4
7 9 6 8 6 9 9 20 8 11 10 18 18 14 13 38 37 37 36 37 46 46 47 49 47 45 41 38 34 27 21 15 13 12 13 15 14 13 11 10 8 7 8 6 6 7 6 6 6
11 6 7 9 11 8 9 10 9 1 22 15 21 10 11 44 46 48 45 45 52 49 48 48 47 46 42 40 37 31 25 19 14 14 15 15 15 14 14 10 10 8 8 7 7 8 9 10 10
12 9 17 9 11 7 6 9 19 5 9 5 16 18 20 50 55 57 59 60 61 58 55 50 47 44 43 41 39 34 29 22 16 16 13 12 15 15 15 14 11 9 8 9 9 10 11 11 12
10 12 10 10 11 4 2 7 14 3 4 6 16 33 42 56 60 60 60 58 63 59 56 54 48 44 42 40 37 35 30 24 19 18 16 14 14 18 18 16 14 12 10 9 11 11 12 15 15
6 17 14 16 14 8 4 9 15 8 4 17 15 35 49 60 62 64 62 60 60 57 52 51 50 46 42 38 36 33 30 26 25 21 20 21 20 20 19 17 16 15 14 15 17 16 18 18 19
8 8 21 19 16 9 7 7 6 21 11 9 16 43 52 59 61 61 58 54 53 55 50 46 50 48 43 41 37 35 32 29 23 23 23 25 26 24 24 22 20 18 19 17 18 19 20 23 24
9 27 12 22 19 9 8 10 5 5 6 5 23 44 56 61 60 60 62 58 56 52 48 44 50 48 44 42 40 37 34 31 29 27 24 25 25 24 24 21 21 20 20 19 20 21 23 24 26
7 8 9 21 18 8 7 12 14 34 17 7 22 43 57 61 60 58 55 61 58 54 49 47 47 47 46 41 39 38 33 32 32 30 27 27 26 25 24 24 23 19 20 22 24 23 26 27 28
9 2 10 13 28 18 17 31 18 32 20 15 20 31 53 59 61 58 57 61 59 56 54 48 48 49 47 42 39 39 35 32 30 29 29 28 27 27 26 26 25 22 24 26 29 29 31 32 34
12 14 23 5 31 12 28 11 34 29 25 24 16 28 40 56 61 58 61 63 64 61 56 54 51 51 48 44 39 40 36 37 34 33 32 30 29 29 30 29 26 28 31 32 32 33 36 37 40
10 17 9 29 12 13 19 22 10 42 51 41 28 15 31 46 60 57 57 67 69 68 61 56 53 50 47 44 41 39 38 40 41 40 39 34 32 32 33 34 32 32 38 40 39 40 40 44 46
5 9 25 6 13 13 31 21 34 28 43 48 49 34 25 41 52 53 51 55 76 72 70 67 62 57 53 51 50 48 52 49 48 47 44 42 40 38 39 39 38 38 42 44 44 47 49 49 49
26 11 12 12 8 10 7 28 28 31 35 53 56 45 30 33 37 38 51 56 63 78 75 68 70 66 60 57 52 53 52 52 49 47 47 46 45 42 45 45 43 40 42 44 47 50 56 58 54
29 35 8 6 9 6 4 13 18 20 41 44 58 53 42 33 24 22 28 58 60 65 77 77 69 64 64 62 57 58 59 60 57 54 54 51 48 45 45 47 49 46 46 48 47 51 55 61 65
26 17 19 20 5 7 9 19 22 31 26 37 57 60 58 46 36 25 19 40 64 61 60 69 74 67 63 65 65 63 60 63 65 60 56 53 46 47 44 47 51 55 52 58 56 55 56 61 68
13 12 27 21 7 7 9 5 11 22 40 44 37 52 74 73 66 45 27 27 57 67 63 57 62 64 61 60 57 58 58 54 54 59 63 60 54 52 49 50 51 52 55 57 62 64 65 69 73
10 16 5 11 15 13 29 17 9 13 19 25 26 51 68 56 48 42 33 29 45 58 59 59 59 58 54 55 46 47 49 52 53 49 47 50 53 54 49 45 48 52 54 57 58 62 68 72 78
21 11 11 16 15 29 27 13 29 4 6 10 28 48 58 60 56 51 44 34 37 48 52 50 47 43 45 44 37 42 47 50 51 53 54 56 60 62 59 58 58 53 52 54 58 62 66 67 71
22 16 4 11 20 38 12 23 22 14 13 6 17 36 44 59 62 56 50 45 36 32 31 32 27 24 27 30 33 37 40 44 48 51 53 52 50 52 53 55 51 52 58 61 67 64 61 61 64
11 22 30 7 4 9 11 29 12 5 7 10 8 27 47 61 60 60 54 50 52 44 35 27 22 22 24 24 27 30 33 40 46 49 53 56 57 58 61 63 63 67 60 61 63 69 68 65 65
14 13 11 13 6 9 9 17 24 13 12 8 12 25 39 63 66 59 56 55 51 45 42 36 31 20 15 15 16 17 19 24 26 29 35 41 45 47 49 52 56 61 62 66 71 69 63 63 59
10 25 12 8 8 8 6 10 5 13 12 21 18 36 46 52 55 52 46 38 33 29 27 24 22 24 21 16 13 13 12 13 18 20 21 21 22 25 26 27 29 36 46 54 61 66 71 75 73
12 28 29 9 9 6 3 8 8 14 12 23 32 42 49 58 59 55 50 46 41 36 33 30 26 19 18 14 11 13 14 12 10 10 11 13 17 22 24 25 25 28 31 35 39 43 45 47 49
Wind_Direction_850mb
340 198 183 154 66 68 255 267 300 294 2 349 140 145 153 99 155 203 149 156 166 164 164 162 161 164 164 156 156 156 159 162 161 162 166 166 170 172 174 173 180 150 110 103 104 104 104 97 84
2 271 243 118 94 113 267 257 300 250 136 112 87 95 55 87 105 142 146 145 166 164 163 159 162 163 167 160 162 160 164 172 178 181 183 185 186 187 193 178 142 114 103 110 108 109 106 100 82
360 265 330 93 117 187 217 246 278 246 162 133 105 77 64 131 141 153 156 152 168 167 162 164 163 166 163 159 165 166 167 180 187 188 186 183 180 168 177 154 126 122 124 127 120 114 115 111 91
302 93 56 91 198 249 209 252 257 110 180 197 130 70 87 235 143 157 156 156 169 166 163 165 165 165 163 162 165 165 162 153 184 180 168 158 154 153 155 140 143 144 144 119 124 121 120 117 103
289 90 56 343 270 260 285 313 135 313 237 146 154 152 92 134 128 164 160 160 170 165 164 164 165 165 167 167 166 171 168 150 156 187 171 155 154 150 146 147 154 163 140 130 126 127 124 123 118
126 88 78 237 261 301 309 317 280 196 238 150 112 113 143 166 162 163 164 164 170 168 166 165 167 169 172 173 174 181 182 177 201 204 180 178 167 162 159 158 152 148 143 138 135 132 130 132 128
129 95 203 206 266 320 272 326 222 177 190 208 152 104 163 183 174 168 167 168 173 173 170 171 171 174 177 180 182 191 199 215 257 252 209 183 179 182 177 171 148 148 157 159 153 152 154 163 172
173 115 194 231 215 264 296 339 350 179 184 171 175 169 189 182 174 171 170 172 179 179 176 177 178 181 184 186 192 198 207 225 260 253 223 193 190 196 196 176 174 175 181 183 184 189 198 213 227
170 95 210 223 159 242 327 335 21 167 154 178 197 192 209 174 172 174 174 175 183 188 186 183 185 187 190 191 194 203 215 229 241 231 205 199 205 201 202 205 193 202 207 215 223 227 235 242 249
175 166 206 216 180 203 302 342 329 68 149 163 169 186 180 175 177 182 184 182 186 189 190 191 192 191 193 198 202 209 219 222 228 222 199 194 212 213 210 209 212 211 214 230 244 249 257 265 270
192 196 200 194 190 210 265 314 335 229 192 229 192 172 176 181 184 190 193 194 189 191 193 193 197 199 202 203 208 215 221 221 225 222 218 212 217 224 231 231 233 236 243 255 262 271 276 280 277
225 229 204 187 199 189 273 317 319 276 176 295 243 195 184 188 191 196 200 199 195 193 195 197 199 205 208 210 215 220 223 223 224 229 231 230 231 239 240 245 250 252 263 270 273 277 277 281 283
233 232 212 208 204 215 209 237 263 278 296 289 232 192 195 198 199 203 208 207 202 201 203 207 205 206 210 212 215 220 223 227 228 232 237 238 240 243 243 247 251 255 262 275 277 276 281 279 283
295 225 181 185 196 210 201 224 216 280 260 306 198 195 199 203 202 206 211 212 207 207 207 210 209 211 214 216 218 221 225 227 231 233 236 241 247 249 248 247 251 258 264 268 276 281 282 286 287
254 298 256 211 199 220 155 253 214 233 269 221 205 203 200 208 208 215 219 216 214 211 211 211 212 212 215 219 220 222 222 225 232 238 239 242 245 248 250 254 257 260 263 266 270 276 281 286 289
186 186 234 183 171 216 162 242 215 216 211 211 211 213 211 213 217 218 222 224 221 218 215 216 216 219 218 218 219 221 225 229 236 238 239 240 239 242 246 251 257 262 263 266 269 275 279 284 287
216 215 224 299 200 165 193 229 221 202 194 174 177 215 219 222 224 224 226 227 227 225 222 220 221 223 222 223 224 229 231 237 237 238 238 241 247 248 254 259 265 267 269 271 274 277 283 289 291
205 224 239 219 208 218 206 231 263 216 214 221 205 201 220 222 224 226 228 229 229 228 228 227 227 228 227 230 232 238 241 244 245 242 243 245 246 251 257 261 263 267 270 272 276 282 285 289 293
342 313 238 206 222 181 222 217 232 233 215 215 214 203 211 221 224 229 235 235 228 228 228 230 228 231 228 225 228 230 237 239 245 247 248 246 248 254 258 261 264 267 271 277 278 280 281 284 291
265 266 289 255 241 213 228 233 239 213 219 210 211 206 190 193 216 229 240 235 230 225 228 229 231 232 232 232 238 240 242 244 247 250 252 254 253 253 260 262 263 263 268 275 278 279 282 284 282
233 237 245 303 321 247 350 246 223 241 236 229 232 223 209 200 197 222 250 221 224 224 225 229 229 232 233 237 242 244 245 250 251 251 256 255 262 262 260 265 268 269 269 271 274 278 279 282 285
237 204 215 261 324 237 170 261 209 210 228 226 228 235 232 212 221 240 268 227 218 221 224 227 231 236 237 241 246 249 251 253 258 263 265 269 270 271 275 277 273 273 273 275 277 279 280 281 280
239 202 202 228 211 333 234 255 239 184 224 222 217 221 233 238 235 231 243 230 215 217 218 218 220 228 229 233 243 246 250 256 264 268 268 269 274 276 274 274 275 277 280 281 281 283 283 281 280
291 260 232 197 217 244 221 211 208 200 207 220 212 216 224 224 216 208 215 214 213 218 220 220 220 224 229 234 229 241 248 255 262 272 272 271 276 279 282 282 283 284 285 285 288 288 287 287 283
205 224 170 190 191 231 190 193 237 245 202 206 208 208 214 215 203 196 186 193 198 209 211 216 223 225 231 238 234 247 252 257 262 268 271 269 271 275 275 276 276 280 281 282 285 286 288 288 288
207 233 216 183 195 229 110 221 217 224 155 195 248 228 210 194 188 183 169 167 169 174 195 208 207 211 222 224 238 246 252 263 267 271 270 273 273 274 279 284 280 279 278 282 285 286 289 290 290
193 209 237 308 326 175 181 239 311 145 96 103 85 181 183 182 175 170 164 162 164 165 167 175 187 194 216 225 241 251 258 260 264 266 268 271 272 273 272 273 276 279 276 278 279 281 284 288 286
223 141 177 221 179 222 216 222 218 177 169 136 130 124 148 168 169 162 159 155 151 154 159 156 159 172 196 212 235 243 253 265 267 267 272 278 280 279 278 277 275 272 274 276 277 277 280 282 279
188 240 260 216 200 185 158 239 195 199 201 172 140 137 146 150 152 156 159 159 165 169 173 179 181 194 205 203 226 250 267 277 293 289 291 295 292 288 289 291 291 289 282 280 280 279 278 278 279
248 234 210 258 178 219 231 273 349 249 181 136 121 125 132 141 140 140 141 141 142 144 146 149 149 155 174 178 188 207 213 214 232 263 274 284 297 304 307 307 304 299 296 295 295 295 294 292 290